Simultaneous Nadir Overpasses (SNOs) Predictions

Prediction of SNOs between NOAA-19 and TERRA Satellite Orbit:

Table of predicted SNOs for the next 14.0 days since TLE Epoch: 10/27/2018
Index Date (NOAA-19) Time (NOAA-19) Lat,Lon (NOAA-19) SZA (NOAA-19 ) Date (TERRA) Time (TERRA) Lat,Lon (TERRA) SZA (TERRA ) Distance(km) Time Diff (sec)
1 10/28/2018 13:23:57 77.65, -2.60 91.71 10/28/2018 13:24:59 77.66, -2.72 91.72 3.08 62
2 10/28/2018 14:15:01 -77.65, 164.67 88.29 10/28/2018 14:14:27 -77.63, 164.78 88.31 3.13 34
3 10/30/2018 18:57:33 -77.70, 93.84 87.53 10/30/2018 18:58:41 -77.70, 93.99 87.50 3.57 68
4 10/30/2018 19:48:29 77.65, -98.64 92.46 10/30/2018 19:48:08 77.64, -98.62 92.44 1.66 21
5 11/02/2018 00:31:10 78.04,-171.32 93.37 11/02/2018 00:32:16 77.97,-168.24 93.57 71.84 66
6 11/02/2018 01:22:03 -77.63, -1.87 86.83 11/02/2018 01:21:50 -77.67, -1.91 86.81 4.02 13
7 11/04/2018 06:55:32 77.65, 94.76 93.88 11/04/2018 06:55:31 77.67, 94.66 93.89 3.04 1
8 11/06/2018 12:29:06 -77.67,-168.66 85.43 11/06/2018 12:29:13 -77.70,-168.64 85.40 3.08 7
9 11/06/2018 13:19:52 77.17, 1.10 94.33 11/06/2018 13:18:49 77.22, -2.94 94.01 99.65 63
10 11/08/2018 18:02:36 77.69, -72.06 95.24 11/08/2018 18:02:54 77.69, -72.11 95.24 1.39 18




NCC Satellite Simultaneous Nadir Overpasses (SNOs) Prediction Service
